Aviation Digital Data Service (ADDS)

Output produced by METARs form (2230 UTC 30 March 2017)
found at http://www.aviationweather.gov/adds/metars/
 
VIAG 301830Z 00000KT 6000 SKC 25/16 Q1009 NOSIG
VAAH 302200Z 32003KT 4000 FU NSC 29/12 Q1010 NOSIG
TAF VAAH 301700Z 3018/3124 00000KT 4000 FUHZ NSC 
     BECMG 3101/3103 30003KT 3000 HZFU 
     BECMG 3104/3106 36008KT 6000 
     BECMG 3112/3114 32003KT 4000 FU
       
VIAG 301830Z 00000KT 6000 SKC 25/16 Q1009 NOSIG
VIAR 302200Z 00000KT 4000 HZ SCT040 SCT100 22/19 Q1009 NOSIG
TAF VIAR 301700Z 3018/3124 00000KT 4000 HZ BR SCT040 BKN100 
     BECMG 3100/3102 2500 BR SCT100 
     BECMG 3105/3107 33007KT 6000 NSC 
     BECMG 3116/3118 VRB02KT 3500 HZ BR FEW040 SCT100
       
VIDP 302200Z 25004KT 4000 HZ NSC 25/14 Q1009 NOSIG
TAF VIDP 301700Z 3018/3124 31004KT 3500 HZ NS
     BECMG 3100/3102 24005KT 2000 BR HZ 
     BECMG 3105/3107 30008G18KT 4000 HZ 
     BECMG 3117/3119 26005KT 3000 HZ
       
VIGR 302100Z 00000KT 4000 HZ NSC 24/14 Q1008
VIJO 302030Z VRB02KT 6000 FEW250 24/10 Q1010 NOSIG
VIJP 302200Z VRB02KR 4500 HZ NSC 28/00 Q1011 NOSIG
TAF VIJP 301700Z 3018/3124 VRB03KT 4000 HZ NSC 
     BECMG 3104/3106 32005KT 6000 
     BECMG 3113/3115 29005KT 4000 HZ
       
VILK 302130Z VRB02KT 2500 HZ NSC 27/14 Q1006
TAF VILK 301700Z 3018/3124 25003KT 3000 HZ NSC 
     BECMG 3101/3103 VRB02KT 2500 HZ 
     BECMG 3104/3106 28008KT 4000 HZ 
     BECMG 3109/3111 5000 HZ 
     BECMG 3114/3116 VRB02KT 3000 HZ 
     BECMG 3121/3123 00000KT 2500 HZ
       
VAAH 302200Z 32003KT 4000 FU NSC 29/12 Q1010 NOSIG
TAF VAAH 301700Z 3018/3124 00000KT 4000 FUHZ NSC 
     BECMG 3101/3103 30003KT 3000 HZFU 
     BECMG 3104/3106 36008KT 6000 
     BECMG 3112/3114 32003KT 4000 FU
       
VAAU 302100Z 00000KT 6000 NSC 26/17 Q1012 NOSIG
VABB 302200Z 29004KT 3000 HZ FEW020 28/25 Q1010 NOSIG
TAF VABB 301700Z 3018/3124 22006KT 3000 HZ FEW020 SCT100 
     BECMG 3021/3023 VRB04KT 
     TEMPO 3100/3103 1500 BR 
     BECMG 3104/3106 24008KT 
     BECMG 3107/3109 27008G18KT 4000 HZ 
     BECMG 3113/3115 26006KT 3000 HZ 
     BECMG 3116/3118 21004KT
       
VABP 302100Z 29010KT 6000 NSC 27/07 Q1012 NOSIG
VAID 302100Z 32005KT 6000 NSC 27/12 Q1012 NOSIG
VAJB 302100Z 00000KT 6000 NSC 25/09 Q1011
VANP 302200Z 00000KT 4000 HZ NSC 28/13 Q1010 NOSIG
TAF VANP 301700Z 3018/3124 VRB03KT 4000 HZ NSC 
     BECMG 3100/3101 00000KT 2000 HZ 
     BECMG 3103/3105 05005KT 4000 HZ 
     BECMG 3112/3114 00000KT 3000 HZ
       
VIAR 302200Z 00000KT 4000 HZ SCT040 SCT100 22/19 Q1009 NOSIG
TAF VIAR 301700Z 3018/3124 00000KT 4000 HZ BR SCT040 BKN100 
     BECMG 3100/3102 2500 BR SCT100 
     BECMG 3105/3107 33007KT 6000 NSC 
     BECMG 3116/3118 VRB02KT 3500 HZ BR FEW040 SCT100
       
VAAU 302100Z 00000KT 6000 NSC 26/17 Q1012 NOSIG
VOBG 301800Z 10006KT CAVOK 25/11 Q1017
TAF VOBG 302000Z 3021/3106 11005KT 6000 FEW015 
     TEMPO 3100/3103 3000 BR FEW010
       
VEBN 302130Z 00000KT 3000 HZ NSC 25/15 Q1006
TAF VEBN 301700Z 3018/3124 25003KT 3000 HZ NSC 
     BECMG 3101/3103 VRB02KT 2500 HZ 
     BECMG 3104/3106 28008KT 4000 HZ 
     BECMG 3109/3111 5000 HZ 
     BECMG 3114/3116 VRB02KT 3000 HZ 
     BECMG 3121/3123 00000KT 2500 HZ
       
VEBS 302200Z 21014KT 4000 HZ SCT015 26/25 Q1009 NOSIG
VECC 302200Z 18006KT 3200 HZ FEW020 SCT100 27/24 Q1008 NOSIG
TAF VECC 301700Z 3018/3124 20010KT 3300 HZ SCT020 
     BECMG 3021/3023 2500 HZ 
     BECMG 3103/3105 20015KT 3800 HZ 
     BECMG 3116/3117 18008KT 2500 HZ
       
VEGY 301800Z 09004KT 4000 HZ NSC 28/23 Q1008
TAF VEPT 301100Z 3012/3118 27003KT 5000 HZ NSC 
     BECMG 3014/3016 27005KT 3000 HZ 
     BECMG 3023/3101 2000 HZ 
     BECMG 3103/3105 3000 HZ 
     BECMG 3106/3108 27008KT 5000 HZ 
     BECMG 3114/3116 3000 HZ
       
VOBG 301800Z 10006KT CAVOK 25/11 Q1017
TAF VOBG 302000Z 3021/3106 11005KT 6000 FEW015 
     TEMPO 3100/3103 3000 BR FEW010
       
VOBL 302200Z 11004KT 6000 NSC 22/16 Q1016 NOSIG
TAF VOBL 302000Z 3021/3106 11005KT 6000 FEW015 
     TEMPO 3100/3103 3000 BR FEW010
       
VOBZ 301700Z 00000KT 2000 HZ NSC 29/22 Q1011 NOSIG
VOCB 302200Z 04003KT 4000 HZ 25/22 Q1012 NOSIG
TAF VOCB 301700Z 3018/3124 18005KT 6000 FEW015 
     BECMG 3021/3022 00000KT 4000 HZ 
     BECMG 3105/3106 09010KT 6000 
     BECMG 3121/3122 00000KT 4000 HZ
       
VOCI 302200Z 00000KT 2500 BR SCT006 27/25 Q1009 TEMPO 2000 BR
TAF VOCI 301700Z 3018/3124 29005KT 4000 HZ SCT015 SCT090 
     TEMPO 3022/3103 VRB05KT 2000 RA BR SCT010 FEW025CB BKN080 
     BECMG 3103/3105 27010KT 6000 SCT015 SCT090 
     TEMPO 3110/3114 27010G20KT 2000 RA BR SCT010 FEW025CB BKN080 
     BECMG 3114/3116 29005KT 4000 HZ SCT015 SCT090 
     TEMPO 3120/3124 2000 RA BR SCT010 FEW025CB BKN080
       
VOCL 302200Z 00000KT 6000 NSC 27/24 Q1009 NOSIG
TAF VOCL 301700Z 3018/3124 VRB05KT 6000 SCT015 SCT090 
     TEMPO 3022/3103 2000 BR 
     BECMG 3103/3105 27010KT 6000 
     TEMPO 3110/3114 SCT010 FEW025CB SCT080 
     BECMG 3116/3117 VRB05KT 
     TEMPO 3122/3124 2000 BR SCT010 SCT090
       
VOHS 302200Z 00000KT 6000 SCT020 27/19 Q1013 N0SIG
TAF VOHS 301700Z 3018/3124 11007KT 6000 FEW020 
     TEMPO 3100/3103 VRB03KT 3000 BR SCT010 
     BECMG 3103/3105 16010KT 6000 SCT020 
     BECMG 3120/3122 11005KT 5000 HZ NSC
       
VOMD 302200Z 00000KT 6000 FEW020 SCT100 26/22 Q1011 NOSIG
TAF VOMD 301700Z 3018/3124 00000KT 6000 FEW020 SCT100 
     TEMPO 3100/3103 4000 HZ 
     BECMG 3105/3106 09010KT 
     BECMG 3118/3119 00000KT
       
VOML 302200Z 06004KT 6000 FEW015 27/24 Q1010 NOSIG
TAF VOML 302000Z 3021/3106 09005KT 6000 SCT015 
     TEMPO 3100/3103 3000 BR FEW010
       
VOMM 302200Z 19003KT 6000 NSC 28/25 Q1010 NOSIG
TAF VOMM 301700Z 3018/3124 16005KT 6000 FEW020 
     BECMG 3021/3022 00000KT 5000 HZ 
     TEMPO 3100/3103 3000 BR 
     BECMG 3104/3105 16010KT 6000 
     BECMG 3121/3122 00000KT 5000 HZ
       
VOTR 302200Z 00000KT 5000 BR SCT015 28/24 Q1010 NOSIG
TAF VOTR 301700Z 3018/3124 VRB02KT 6000 FEW016 
     BECMG 3021/3022 3000 BR 
     BECMG 3105/3106 14010KT 6000 
     BECMG 3118/3119 00000KT 
     BECMG 3121/3122 3000 BR
       
VOTV 302200Z 34005KT 4000 HZ FEW015 28/25 Q1009 NOSIG
TAF VOTV 301700Z 3018/3124 27010KT 4000 HZ SCT015 FEW025CB BKN090 
     TEMPO 3022/3103 VRB05KT 2000 TSRA BR SCT010 FEW025CB BKN080 
     BECMG 3103/3105 27010KT 6000 SCT015 SCT090 
     TEMPO 3110/3114 2000 TSRA RA SCT010 FEW025CB BKN080 
     BECMG 3114/3116 29005KT 4000 HZ SCT015 SCT090 
     TEMPO 3120/3124 2000 TSRA RA SCT010 FEW025CB BKN080
       
VOVZ 302200Z 22005KT 6000 FEW018 27/24 Q1009 NOSIG
VIAG 301830Z 00000KT 6000 SKC 25/16 Q1009 NOSIG
VIAR 302200Z 00000KT 4000 HZ SCT040 SCT100 22/19 Q1009 NOSIG
TAF VIAR 301700Z 3018/3124 00000KT 4000 HZ BR SCT040 BKN100 
     BECMG 3100/3102 2500 BR SCT100 
     BECMG 3105/3107 33007KT 6000 NSC 
     BECMG 3116/3118 VRB02KT 3500 HZ BR FEW040 SCT100
       
VIDP 302200Z 25004KT 4000 HZ NSC 25/14 Q1009 NOSIG
TAF VIDP 301700Z 3018/3124 31004KT 3500 HZ NS
     BECMG 3100/3102 24005KT 2000 BR HZ 
     BECMG 3105/3107 30008G18KT 4000 HZ 
     BECMG 3117/3119 26005KT 3000 HZ
       
VIGR 302100Z 00000KT 4000 HZ NSC 24/14 Q1008
VIJO 302030Z VRB02KT 6000 FEW250 24/10 Q1010 NOSIG
VIJP 302200Z VRB02KR 4500 HZ NSC 28/00 Q1011 NOSIG
TAF VIJP 301700Z 3018/3124 VRB03KT 4000 HZ NSC 
     BECMG 3104/3106 32005KT 6000 
     BECMG 3113/3115 29005KT 4000 HZ
       
VILK 302130Z VRB02KT 2500 HZ NSC 27/14 Q1006
TAF VILK 301700Z 3018/3124 25003KT 3000 HZ NSC 
     BECMG 3101/3103 VRB02KT 2500 HZ 
     BECMG 3104/3106 28008KT 4000 HZ 
     BECMG 3109/3111 5000 HZ 
     BECMG 3114/3116 VRB02KT 3000 HZ 
     BECMG 3121/3123 00000KT 2500 HZ
       
VABP 302100Z 29010KT 6000 NSC 27/07 Q1012 NOSIG
VEBS 302200Z 21014KT 4000 HZ SCT015 26/25 Q1009 NOSIG
VOCL 302200Z 00000KT 6000 NSC 27/24 Q1009 NOSIG
TAF VOCL 301700Z 3018/3124 VRB05KT 6000 SCT015 SCT090 
     TEMPO 3022/3103 2000 BR 
     BECMG 3103/3105 27010KT 6000 
     TEMPO 3110/3114 SCT010 FEW025CB SCT080 
     BECMG 3116/3117 VRB05KT 
     TEMPO 3122/3124 2000 BR SCT010 SCT090
       
VOMM 302200Z 19003KT 6000 NSC 28/25 Q1010 NOSIG
TAF VOMM 301700Z 3018/3124 16005KT 6000 FEW020 
     BECMG 3021/3022 00000KT 5000 HZ 
     TEMPO 3100/3103 3000 BR 
     BECMG 3104/3105 16010KT 6000 
     BECMG 3121/3122 00000KT 5000 HZ
       
VABB 302200Z 29004KT 3000 HZ FEW020 28/25 Q1010 NOSIG
TAF VABB 301700Z 3018/3124 22006KT 3000 HZ FEW020 SCT100 
     BECMG 3021/3023 VRB04KT 
     TEMPO 3100/3103 1500 BR 
     BECMG 3104/3106 24008KT 
     BECMG 3107/3109 27008G18KT 4000 HZ 
     BECMG 3113/3115 26006KT 3000 HZ 
     BECMG 3116/3118 21004KT
       
VOCI 302200Z 00000KT 2500 BR SCT006 27/25 Q1009 TEMPO 2000 BR
TAF VOCI 301700Z 3018/3124 29005KT 4000 HZ SCT015 SCT090 
     TEMPO 3022/3103 VRB05KT 2000 RA BR SCT010 FEW025CB BKN080 
     BECMG 3103/3105 27010KT 6000 SCT015 SCT090 
     TEMPO 3110/3114 27010G20KT 2000 RA BR SCT010 FEW025CB BKN080 
     BECMG 3114/3116 29005KT 4000 HZ SCT015 SCT090 
     TEMPO 3120/3124 2000 RA BR SCT010 FEW025CB BKN080
       
VOCB 302200Z 04003KT 4000 HZ 25/22 Q1012 NOSIG
TAF VOCB 301700Z 3018/3124 18005KT 6000 FEW015 
     BECMG 3021/3022 00000KT 4000 HZ 
     BECMG 3105/3106 09010KT 6000 
     BECMG 3121/3122 00000KT 4000 HZ
       
VAID 302100Z 32005KT 6000 NSC 27/12 Q1012 NOSIG
VEBN 302130Z 00000KT 3000 HZ NSC 25/15 Q1006
TAF VEBN 301700Z 3018/3124 25003KT 3000 HZ NSC 
     BECMG 3101/3103 VRB02KT 2500 HZ 
     BECMG 3104/3106 28008KT 4000 HZ 
     BECMG 3109/3111 5000 HZ 
     BECMG 3114/3116 VRB02KT 3000 HZ 
     BECMG 3121/3123 00000KT 2500 HZ
       
VEBS 302200Z 21014KT 4000 HZ SCT015 26/25 Q1009 NOSIG
VECC 302200Z 18006KT 3200 HZ FEW020 SCT100 27/24 Q1008 NOSIG
TAF VECC 301700Z 3018/3124 20010KT 3300 HZ SCT020 
     BECMG 3021/3023 2500 HZ 
     BECMG 3103/3105 20015KT 3800 HZ 
     BECMG 3116/3117 18008KT 2500 HZ
       
VEGY 301800Z 09004KT 4000 HZ NSC 28/23 Q1008
TAF VEPT 301100Z 3012/3118 27003KT 5000 HZ NSC 
     BECMG 3014/3016 27005KT 3000 HZ 
     BECMG 3023/3101 2000 HZ 
     BECMG 3103/3105 3000 HZ 
     BECMG 3106/3108 27008KT 5000 HZ 
     BECMG 3114/3116 3000 HZ
       
VAAH 302200Z 32003KT 4000 FU NSC 29/12 Q1010 NOSIG
TAF VAAH 301700Z 3018/3124 00000KT 4000 FUHZ NSC 
     BECMG 3101/3103 30003KT 3000 HZFU 
     BECMG 3104/3106 36008KT 6000 
     BECMG 3112/3114 32003KT 4000 FU
       
VAAU 302100Z 00000KT 6000 NSC 26/17 Q1012 NOSIG
VABB 302200Z 29004KT 3000 HZ FEW020 28/25 Q1010 NOSIG
TAF VABB 301700Z 3018/3124 22006KT 3000 HZ FEW020 SCT100 
     BECMG 3021/3023 VRB04KT 
     TEMPO 3100/3103 1500 BR 
     BECMG 3104/3106 24008KT 
     BECMG 3107/3109 27008G18KT 4000 HZ 
     BECMG 3113/3115 26006KT 3000 HZ 
     BECMG 3116/3118 21004KT
       
VABP 302100Z 29010KT 6000 NSC 27/07 Q1012 NOSIG
VAID 302100Z 32005KT 6000 NSC 27/12 Q1012 NOSIG
VAJB 302100Z 00000KT 6000 NSC 25/09 Q1011
VANP 302200Z 00000KT 4000 HZ NSC 28/13 Q1010 NOSIG
TAF VANP 301700Z 3018/3124 VRB03KT 4000 HZ NSC 
     BECMG 3100/3101 00000KT 2000 HZ 
     BECMG 3103/3105 05005KT 4000 HZ 
     BECMG 3112/3114 00000KT 3000 HZ
       
VIAG 301830Z 00000KT 6000 SKC 25/16 Q1009 NOSIG
VIAR 302200Z 00000KT 4000 HZ SCT040 SCT100 22/19 Q1009 NOSIG
TAF VIAR 301700Z 3018/3124 00000KT 4000 HZ BR SCT040 BKN100 
     BECMG 3100/3102 2500 BR SCT100 
     BECMG 3105/3107 33007KT 6000 NSC 
     BECMG 3116/3118 VRB02KT 3500 HZ BR FEW040 SCT100
       
VIDP 302200Z 25004KT 4000 HZ NSC 25/14 Q1009 NOSIG
TAF VIDP 301700Z 3018/3124 31004KT 3500 HZ NS
     BECMG 3100/3102 24005KT 2000 BR HZ 
     BECMG 3105/3107 30008G18KT 4000 HZ 
     BECMG 3117/3119 26005KT 3000 HZ
       
VIGR 302100Z 00000KT 4000 HZ NSC 24/14 Q1008
VIJO 302030Z VRB02KT 6000 FEW250 24/10 Q1010 NOSIG
VIJP 302200Z VRB02KR 4500 HZ NSC 28/00 Q1011 NOSIG
TAF VIJP 301700Z 3018/3124 VRB03KT 4000 HZ NSC 
     BECMG 3104/3106 32005KT 6000 
     BECMG 3113/3115 29005KT 4000 HZ
       
VILK 302130Z VRB02KT 2500 HZ NSC 27/14 Q1006
TAF VILK 301700Z 3018/3124 25003KT 3000 HZ NSC 
     BECMG 3101/3103 VRB02KT 2500 HZ 
     BECMG 3104/3106 28008KT 4000 HZ 
     BECMG 3109/3111 5000 HZ 
     BECMG 3114/3116 VRB02KT 3000 HZ 
     BECMG 3121/3123 00000KT 2500 HZ
       
VEBN 302130Z 00000KT 3000 HZ NSC 25/15 Q1006
TAF VEBN 301700Z 3018/3124 25003KT 3000 HZ NSC 
     BECMG 3101/3103 VRB02KT 2500 HZ 
     BECMG 3104/3106 28008KT 4000 HZ 
     BECMG 3109/3111 5000 HZ 
     BECMG 3114/3116 VRB02KT 3000 HZ 
     BECMG 3121/3123 00000KT 2500 HZ
       
VEBS 302200Z 21014KT 4000 HZ SCT015 26/25 Q1009 NOSIG
VECC 302200Z 18006KT 3200 HZ FEW020 SCT100 27/24 Q1008 NOSIG
TAF VECC 301700Z 3018/3124 20010KT 3300 HZ SCT020 
     BECMG 3021/3023 2500 HZ 
     BECMG 3103/3105 20015KT 3800 HZ 
     BECMG 3116/3117 18008KT 2500 HZ
       
VEGY 301800Z 09004KT 4000 HZ NSC 28/23 Q1008
TAF VEPT 301100Z 3012/3118 27003KT 5000 HZ NSC 
     BECMG 3014/3016 27005KT 3000 HZ 
     BECMG 3023/3101 2000 HZ 
     BECMG 3103/3105 3000 HZ 
     BECMG 3106/3108 27008KT 5000 HZ 
     BECMG 3114/3116 3000 HZ
       
VIGR 302100Z 00000KT 4000 HZ NSC 24/14 Q1008
VOBG 301800Z 10006KT CAVOK 25/11 Q1017
TAF VOBG 302000Z 3021/3106 11005KT 6000 FEW015 
     TEMPO 3100/3103 3000 BR FEW010
       
VOBL 302200Z 11004KT 6000 NSC 22/16 Q1016 NOSIG
TAF VOBL 302000Z 3021/3106 11005KT 6000 FEW015 
     TEMPO 3100/3103 3000 BR FEW010
       
VOBZ 301700Z 00000KT 2000 HZ NSC 29/22 Q1011 NOSIG
VOCB 302200Z 04003KT 4000 HZ 25/22 Q1012 NOSIG
TAF VOCB 301700Z 3018/3124 18005KT 6000 FEW015 
     BECMG 3021/3022 00000KT 4000 HZ 
     BECMG 3105/3106 09010KT 6000 
     BECMG 3121/3122 00000KT 4000 HZ
       
VOCI 302200Z 00000KT 2500 BR SCT006 27/25 Q1009 TEMPO 2000 BR
TAF VOCI 301700Z 3018/3124 29005KT 4000 HZ SCT015 SCT090 
     TEMPO 3022/3103 VRB05KT 2000 RA BR SCT010 FEW025CB BKN080 
     BECMG 3103/3105 27010KT 6000 SCT015 SCT090 
     TEMPO 3110/3114 27010G20KT 2000 RA BR SCT010 FEW025CB BKN080 
     BECMG 3114/3116 29005KT 4000 HZ SCT015 SCT090 
     TEMPO 3120/3124 2000 RA BR SCT010 FEW025CB BKN080
       
VOCL 302200Z 00000KT 6000 NSC 27/24 Q1009 NOSIG
TAF VOCL 301700Z 3018/3124 VRB05KT 6000 SCT015 SCT090 
     TEMPO 3022/3103 2000 BR 
     BECMG 3103/3105 27010KT 6000 
     TEMPO 3110/3114 SCT010 FEW025CB SCT080 
     BECMG 3116/3117 VRB05KT 
     TEMPO 3122/3124 2000 BR SCT010 SCT090
       
VOHS 302200Z 00000KT 6000 SCT020 27/19 Q1013 N0SIG
TAF VOHS 301700Z 3018/3124 11007KT 6000 FEW020 
     TEMPO 3100/3103 VRB03KT 3000 BR SCT010 
     BECMG 3103/3105 16010KT 6000 SCT020 
     BECMG 3120/3122 11005KT 5000 HZ NSC
       
VOMD 302200Z 00000KT 6000 FEW020 SCT100 26/22 Q1011 NOSIG
TAF VOMD 301700Z 3018/3124 00000KT 6000 FEW020 SCT100 
     TEMPO 3100/3103 4000 HZ 
     BECMG 3105/3106 09010KT 
     BECMG 3118/3119 00000KT
       
VOML 302200Z 06004KT 6000 FEW015 27/24 Q1010 NOSIG
TAF VOML 302000Z 3021/3106 09005KT 6000 SCT015 
     TEMPO 3100/3103 3000 BR FEW010
       
VOMM 302200Z 19003KT 6000 NSC 28/25 Q1010 NOSIG
TAF VOMM 301700Z 3018/3124 16005KT 6000 FEW020 
     BECMG 3021/3022 00000KT 5000 HZ 
     TEMPO 3100/3103 3000 BR 
     BECMG 3104/3105 16010KT 6000 
     BECMG 3121/3122 00000KT 5000 HZ
       
VOTR 302200Z 00000KT 5000 BR SCT015 28/24 Q1010 NOSIG
TAF VOTR 301700Z 3018/3124 VRB02KT 6000 FEW016 
     BECMG 3021/3022 3000 BR 
     BECMG 3105/3106 14010KT 6000 
     BECMG 3118/3119 00000KT 
     BECMG 3121/3122 3000 BR
       
VOTV 302200Z 34005KT 4000 HZ FEW015 28/25 Q1009 NOSIG
TAF VOTV 301700Z 3018/3124 27010KT 4000 HZ SCT015 FEW025CB BKN090 
     TEMPO 3022/3103 VRB05KT 2000 TSRA BR SCT010 FEW025CB BKN080 
     BECMG 3103/3105 27010KT 6000 SCT015 SCT090 
     TEMPO 3110/3114 2000 TSRA RA SCT010 FEW025CB BKN080 
     BECMG 3114/3116 29005KT 4000 HZ SCT015 SCT090 
     TEMPO 3120/3124 2000 TSRA RA SCT010 FEW025CB BKN080
       
VOVZ 302200Z 22005KT 6000 FEW018 27/24 Q1009 NOSIG
VIAG 301830Z 00000KT 6000 SKC 25/16 Q1009 NOSIG
VIAR 302200Z 00000KT 4000 HZ SCT040 SCT100 22/19 Q1009 NOSIG
TAF VIAR 301700Z 3018/3124 00000KT 4000 HZ BR SCT040 BKN100 
     BECMG 3100/3102 2500 BR SCT100 
     BECMG 3105/3107 33007KT 6000 NSC 
     BECMG 3116/3118 VRB02KT 3500 HZ BR FEW040 SCT100
       
VIDP 302200Z 25004KT 4000 HZ NSC 25/14 Q1009 NOSIG
TAF VIDP 301700Z 3018/3124 31004KT 3500 HZ NS
     BECMG 3100/3102 24005KT 2000 BR HZ 
     BECMG 3105/3107 30008G18KT 4000 HZ 
     BECMG 3117/3119 26005KT 3000 HZ
       
VIGR 302100Z 00000KT 4000 HZ NSC 24/14 Q1008
VIJO 302030Z VRB02KT 6000 FEW250 24/10 Q1010 NOSIG
VIJP 302200Z VRB02KR 4500 HZ NSC 28/00 Q1011 NOSIG
TAF VIJP 301700Z 3018/3124 VRB03KT 4000 HZ NSC 
     BECMG 3104/3106 32005KT 6000 
     BECMG 3113/3115 29005KT 4000 HZ
       
VILK 302130Z VRB02KT 2500 HZ NSC 27/14 Q1006
TAF VILK 301700Z 3018/3124 25003KT 3000 HZ NSC 
     BECMG 3101/3103 VRB02KT 2500 HZ 
     BECMG 3104/3106 28008KT 4000 HZ 
     BECMG 3109/3111 5000 HZ 
     BECMG 3114/3116 VRB02KT 3000 HZ 
     BECMG 3121/3123 00000KT 2500 HZ
       
VIAG 301830Z 00000KT 6000 SKC 25/16 Q1009 NOSIG
VIAR 302200Z 00000KT 4000 HZ SCT040 SCT100 22/19 Q1009 NOSIG
TAF VIAR 301700Z 3018/3124 00000KT 4000 HZ BR SCT040 BKN100 
     BECMG 3100/3102 2500 BR SCT100 
     BECMG 3105/3107 33007KT 6000 NSC 
     BECMG 3116/3118 VRB02KT 3500 HZ BR FEW040 SCT100
       
VIDP 302200Z 25004KT 4000 HZ NSC 25/14 Q1009 NOSIG
TAF VIDP 301700Z 3018/3124 31004KT 3500 HZ NS
     BECMG 3100/3102 24005KT 2000 BR HZ 
     BECMG 3105/3107 30008G18KT 4000 HZ 
     BECMG 3117/3119 26005KT 3000 HZ
       
VIGR 302100Z 00000KT 4000 HZ NSC 24/14 Q1008
VIJO 302030Z VRB02KT 6000 FEW250 24/10 Q1010 NOSIG
VIJP 302200Z VRB02KR 4500 HZ NSC 28/00 Q1011 NOSIG
TAF VIJP 301700Z 3018/3124 VRB03KT 4000 HZ NSC 
     BECMG 3104/3106 32005KT 6000 
     BECMG 3113/3115 29005KT 4000 HZ
       
VILK 302130Z VRB02KT 2500 HZ NSC 27/14 Q1006
TAF VILK 301700Z 3018/3124 25003KT 3000 HZ NSC 
     BECMG 3101/3103 VRB02KT 2500 HZ 
     BECMG 3104/3106 28008KT 4000 HZ 
     BECMG 3109/3111 5000 HZ 
     BECMG 3114/3116 VRB02KT 3000 HZ 
     BECMG 3121/3123 00000KT 2500 HZ
       
VEBN 302130Z 00000KT 3000 HZ NSC 25/15 Q1006
TAF VEBN 301700Z 3018/3124 25003KT 3000 HZ NSC 
     BECMG 3101/3103 VRB02KT 2500 HZ 
     BECMG 3104/3106 28008KT 4000 HZ 
     BECMG 3109/3111 5000 HZ 
     BECMG 3114/3116 VRB02KT 3000 HZ 
     BECMG 3121/3123 00000KT 2500 HZ
       
VEBS 302200Z 21014KT 4000 HZ SCT015 26/25 Q1009 NOSIG
VECC 302200Z 18006KT 3200 HZ FEW020 SCT100 27/24 Q1008 NOSIG
TAF VECC 301700Z 3018/3124 20010KT 3300 HZ SCT020 
     BECMG 3021/3023 2500 HZ 
     BECMG 3103/3105 20015KT 3800 HZ 
     BECMG 3116/3117 18008KT 2500 HZ
       
VEGY 301800Z 09004KT 4000 HZ NSC 28/23 Q1008
TAF VEPT 301100Z 3012/3118 27003KT 5000 HZ NSC 
     BECMG 3014/3016 27005KT 3000 HZ 
     BECMG 3023/3101 2000 HZ 
     BECMG 3103/3105 3000 HZ 
     BECMG 3106/3108 27008KT 5000 HZ 
     BECMG 3114/3116 3000 HZ
       
VIDP 302200Z 25004KT 4000 HZ NSC 25/14 Q1009 NOSIG
TAF VIDP 301700Z 3018/3124 31004KT 3500 HZ NS
     BECMG 3100/3102 24005KT 2000 BR HZ 
     BECMG 3105/3107 30008G18KT 4000 HZ 
     BECMG 3117/3119 26005KT 3000 HZ
       
VAJB 302100Z 00000KT 6000 NSC 25/09 Q1011
VIJP 302200Z VRB02KR 4500 HZ NSC 28/00 Q1011 NOSIG
TAF VIJP 301700Z 3018/3124 VRB03KT 4000 HZ NSC 
     BECMG 3104/3106 32005KT 6000 
     BECMG 3113/3115 29005KT 4000 HZ
       
VIJO 302030Z VRB02KT 6000 FEW250 24/10 Q1010 NOSIG
VILK 302130Z VRB02KT 2500 HZ NSC 27/14 Q1006
TAF VILK 301700Z 3018/3124 25003KT 3000 HZ NSC 
     BECMG 3101/3103 VRB02KT 2500 HZ 
     BECMG 3104/3106 28008KT 4000 HZ 
     BECMG 3109/3111 5000 HZ 
     BECMG 3114/3116 VRB02KT 3000 HZ 
     BECMG 3121/3123 00000KT 2500 HZ
       
VOMD 302200Z 00000KT 6000 FEW020 SCT100 26/22 Q1011 NOSIG
TAF VOMD 301700Z 3018/3124 00000KT 6000 FEW020 SCT100 
     TEMPO 3100/3103 4000 HZ 
     BECMG 3105/3106 09010KT 
     BECMG 3118/3119 00000KT
       
VOML 302200Z 06004KT 6000 FEW015 27/24 Q1010 NOSIG
TAF VOML 302000Z 3021/3106 09005KT 6000 SCT015 
     TEMPO 3100/3103 3000 BR FEW010
       
VANP 302200Z 00000KT 4000 HZ NSC 28/13 Q1010 NOSIG
TAF VANP 301700Z 3018/3124 VRB03KT 4000 HZ NSC 
     BECMG 3100/3101 00000KT 2000 HZ 
     BECMG 3103/3105 05005KT 4000 HZ 
     BECMG 3112/3114 00000KT 3000 HZ
       
VECC 302200Z 18006KT 3200 HZ FEW020 SCT100 27/24 Q1008 NOSIG
TAF VECC 301700Z 3018/3124 20010KT 3300 HZ SCT020 
     BECMG 3021/3023 2500 HZ 
     BECMG 3103/3105 20015KT 3800 HZ 
     BECMG 3116/3117 18008KT 2500 HZ
       
TAF VEPT 301100Z 3012/3118 27003KT 5000 HZ NSC 
     BECMG 3014/3016 27005KT 3000 HZ 
     BECMG 3023/3101 2000 HZ 
     BECMG 3103/3105 3000 HZ 
     BECMG 3106/3108 27008KT 5000 HZ 
     BECMG 3114/3116 3000 HZ
       
VOTV 302200Z 34005KT 4000 HZ FEW015 28/25 Q1009 NOSIG
TAF VOTV 301700Z 3018/3124 27010KT 4000 HZ SCT015 FEW025CB BKN090 
     TEMPO 3022/3103 VRB05KT 2000 TSRA BR SCT010 FEW025CB BKN080 
     BECMG 3103/3105 27010KT 6000 SCT015 SCT090 
     TEMPO 3110/3114 2000 TSRA RA SCT010 FEW025CB BKN080 
     BECMG 3114/3116 29005KT 4000 HZ SCT015 SCT090 
     TEMPO 3120/3124 2000 TSRA RA SCT010 FEW025CB BKN080
       
VOTR 302200Z 00000KT 5000 BR SCT015 28/24 Q1010 NOSIG
TAF VOTR 301700Z 3018/3124 VRB02KT 6000 FEW016 
     BECMG 3021/3022 3000 BR 
     BECMG 3105/3106 14010KT 6000 
     BECMG 3118/3119 00000KT 
     BECMG 3121/3122 3000 BR
       
VOBZ 301700Z 00000KT 2000 HZ NSC 29/22 Q1011 NOSIG